Location: Aulus
(42.7909°N, 1.3399°E)
Time: 21:50:22
(UTC+00:00)

Cosmos 1238 Rocket - Pass Details

Date: 19 May 2025
Orbit: 356 x 777 km, 82.9° (Epoch: 18 June)

Event Time Altitude Azimuth Distance (km) Brightness Sun altitude
Exits shadow 21:22:38 42° 97° (E) 705 3.0 -18.5°
Maximum altitude 21:22:42 42° 94° (E) 703 3.0 -18.5°
Drops below altitude 10° 21:25:58 10° 22° (NNE) 1,583 5.6 -18.9°
Sets 21:27:57 0° 15° (NNE) 2,398 6.7 -19.1°
